Change the Weather History Date:

Wednesday, March 27, 2013

  Actual Average Record
Temperature  
Mean Temperature 34 °F -  
Max Temperature 42 °F 52 °F 78 °F (2012)
Min Temperature 25 °F 29 °F 0 °F (1964)
Degree Days  
Heating Degree Days 32    
Moisture  
Dew Point 21 °F    
Average Humidity 65    
Maximum Humidity 92    
Minimum Humidity 36    
Precipitation  
Precipitation 0.00 in - - ()
Sea Level Pressure  
Sea Level Pressure 30.32 in    
Wind  
Wind Speed 1 mph (West)    
Max Wind Speed 10 mph    
Max Gust Speed -    
Visibility 10 miles    
Events      
Averages and records for this station are not official NWS values.
T = Trace of Precipitation, MM = Missing Value Source: NWS Daily Summary

Daily Weather History Graph

Daily Weather History Graph

Search for Another Location

Airport or City:

Trip Planner

Search our weather history database for the weather conditions in past years. The results will help you decide how hot, cold, wet, or windy it might be!

Date:

Astronomy

Mar. 27, 2013 Rise Set
Actual Time 6:54 AM CDT 7:25 PM CDT
Civil Twilight 6:26 AM CDT 7:53 PM CDT
Nautical Twilight 5:52 AM CDT 8:27 PM CDT
Astronomical Twilight 5:18 AM CDT 9:02 PM CDT
Moon 8:11 PM CDT (3/27) 6:44 AM CDT (3/27)
Length of Visible Light 13h 27m
Length of Day
12h 30m
Full, 100% of the Moon is Illuminated
Mar 27
Full
Apr 2
Last Quarter
Apr 10
New
Apr 18
First Quarter
Apr 25
Full

Hourly Weather History & Observations

Time (CDT) Temp. Windchill Dew Point Humidity Pressure Visibility Wind Dir Wind Speed Gust Speed Precip Events Conditions
12:15 AM 28.4 °F - 24.4 °F 85% 30.30 in 10.0 mi Calm Calm - N/A   Clear
12:35 AM 30.0 °F - 24.6 °F 80% 30.30 in 10.0 mi Calm Calm - N/A   Clear
12:55 AM 27.5 °F - 23.9 °F 86% 30.31 in 10.0 mi Calm Calm - N/A   Clear
1:15 AM 26.6 °F - 23.9 °F 90% 30.31 in 10.0 mi Calm Calm - N/A   Clear
1:35 AM 26.4 °F - 23.9 °F 90% 30.31 in 10.0 mi Calm Calm - N/A   Clear
1:55 AM 26.2 °F - 23.4 °F 89% 30.31 in 10.0 mi Calm Calm - N/A   Clear
2:15 AM 25.7 °F - 23.4 °F 91% 30.31 in 10.0 mi Calm Calm - N/A   Clear
2:35 AM 25.9 °F - 23.9 °F 92% 30.31 in 10.0 mi Calm Calm - N/A   Clear
2:55 AM 26.2 °F - 23.9 °F 91% 30.31 in 10.0 mi Calm Calm - N/A   Mostly Cloudy
3:15 AM 26.6 °F - 23.9 °F 90% 30.31 in 10.0 mi Calm Calm - N/A   Overcast
3:35 AM 27.0 °F - 24.4 °F 90% 30.30 in 10.0 mi Calm Calm - N/A   Overcast
3:55 AM 27.3 °F 23.4 °F 24.6 °F 90% 30.30 in 10.0 mi West 3.5 mph - N/A   Mostly Cloudy
4:15 AM 27.9 °F 24.0 °F 24.1 °F 86% 30.30 in 10.0 mi West 3.5 mph - N/A   Overcast
4:35 AM 27.5 °F - 23.9 °F 86% 30.30 in 10.0 mi Calm Calm - N/A   Scattered Clouds
4:55 AM 27.5 °F - 24.3 °F 88% 30.30 in 10.0 mi Calm Calm - N/A   Scattered Clouds
5:15 AM 27.0 °F 23.0 °F 24.3 °F 90% 30.31 in 10.0 mi West 3.5 mph - N/A   Mostly Cloudy
5:35 AM 26.8 °F - 24.1 °F 90% 30.31 in 10.0 mi Calm Calm - N/A   Overcast
5:55 AM 27.1 °F - 24.4 °F 90% 30.31 in 10.0 mi Calm Calm - N/A   Overcast
6:15 AM 27.0 °F - 23.7 °F 88% 30.31 in 10.0 mi Calm Calm - N/A   Overcast
6:35 AM 27.1 °F - 23.9 °F 88% 30.32 in 10.0 mi Calm Calm - N/A   Overcast
6:55 AM 27.1 °F - 23.9 °F 88% 30.32 in 10.0 mi Calm Calm - N/A   Overcast
7:15 AM 27.1 °F - 23.7 °F 87% 30.33 in 10.0 mi Calm Calm - N/A   Overcast
7:35 AM 27.1 °F - 23.0 °F 84% 30.33 in 10.0 mi Calm Calm - N/A   Overcast
7:55 AM 27.1 °F - 23.2 °F 85% 30.33 in 10.0 mi Calm Calm - N/A   Mostly Cloudy
8:15 AM 27.1 °F - 23.5 °F 86% 30.34 in 10.0 mi Calm Calm - N/A   Scattered Clouds
8:35 AM 27.5 °F - 23.4 °F 84% 30.33 in 10.0 mi Calm Calm - N/A   Clear
8:55 AM 29.1 °F 25.4 °F 23.7 °F 80% 30.34 in 10.0 mi West 3.5 mph - N/A   Clear
9:15 AM 30.7 °F - 22.5 °F 71% 30.34 in 10.0 mi Calm Calm - N/A   Clear
9:35 AM 32.0 °F 28.7 °F 22.1 °F 67% 30.34 in 10.0 mi West 3.5 mph - N/A   Clear
9:55 AM 32.9 °F - 21.7 °F 64% 30.34 in 10.0 mi Calm Calm - N/A   Clear
10:15 AM 34.9 °F 32.0 °F 19.9 °F 55% 30.34 in 10.0 mi West 3.5 mph - N/A   Clear
10:35 AM 36.3 °F - 20.1 °F 52% 30.34 in 10.0 mi Calm Calm - N/A   Clear
10:55 AM 37.6 °F 35.1 °F 19.9 °F 49% 30.34 in 10.0 mi WNW 3.5 mph - N/A   Clear
11:15 AM 38.8 °F 35.4 °F 19.6 °F 46% 30.34 in 10.0 mi West 4.6 mph - N/A   Clear
11:35 AM 39.7 °F 37.6 °F 17.1 °F 40% 30.34 in 10.0 mi SW 3.5 mph - N/A   Clear
11:55 AM 39.7 °F - 14.7 °F 36% 30.34 in 10.0 mi Calm Calm - N/A   Scattered Clouds
12:15 PM 40.1 °F - 16.2 °F 38% 30.34 in 10.0 mi Calm Calm - N/A   Scattered Clouds
12:35 PM 40.1 °F - 15.4 °F 37% 30.34 in 10.0 mi Calm Calm - N/A   Mostly Cloudy
12:55 PM 40.3 °F - 16.5 °F 38% 30.34 in 10.0 mi Calm Calm - N/A   Mostly Cloudy
1:15 PM 41.0 °F - 16.2 °F 37% 30.34 in 10.0 mi Calm Calm - N/A   Scattered Clouds
1:35 PM 40.1 °F - 16.0 °F 38% 30.33 in 10.0 mi Calm Calm - N/A   Scattered Clouds
1:55 PM 41.2 °F - 15.6 °F 36% 30.33 in 10.0 mi Calm Calm - N/A   Clear
2:15 PM 41.4 °F 36.2 °F 18.0 °F 39% 30.32 in 10.0 mi WSW 8.1 mph - N/A   Clear
2:35 PM 42.3 °F 36.3 °F 18.7 °F 39% 30.31 in 10.0 mi WSW 10.4 mph - N/A   Clear
2:55 PM 42.4 °F 37.5 °F 18.9 °F 39% 30.31 in 10.0 mi SW 8.1 mph - N/A   Clear
3:15 PM 42.3 °F 38.6 °F 18.7 °F 39% 30.31 in 10.0 mi West 5.8 mph - N/A   Clear
3:35 PM 41.7 °F 37.3 °F 18.5 °F 39% 30.31 in 10.0 mi NW 6.9 mph - N/A   Clear
3:55 PM 41.9 °F 40.0 °F 16.9 °F 36% 30.30 in 10.0 mi WSW 3.5 mph - N/A   Clear
4:15 PM 42.1 °F 38.4 °F 17.1 °F 37% 30.30 in 10.0 mi West 5.8 mph - N/A   Clear
4:35 PM 41.9 °F 39.0 °F 17.2 °F 37% 30.30 in 10.0 mi West 4.6 mph - N/A   Clear
4:55 PM 42.1 °F - 17.4 °F 37% 30.30 in 10.0 mi Calm Calm - N/A   Clear
5:15 PM 42.1 °F 37.1 °F 18.3 °F 39% 30.29 in 10.0 mi West 8.1 mph - N/A   Clear
5:35 PM 41.7 °F 38.8 °F 16.3 °F 36% 30.29 in 10.0 mi West 4.6 mph - N/A   Clear
5:55 PM 41.7 °F 38.8 °F 16.9 °F 37% 30.29 in 10.0 mi West 4.6 mph - N/A   Clear
6:15 PM 41.0 °F 36.4 °F 17.2 °F 38% 30.29 in 10.0 mi WNW 6.9 mph - N/A   Clear
6:35 PM 40.5 °F 35.8 °F 19.6 °F 43% 30.29 in 10.0 mi WNW 6.9 mph - N/A   Clear
6:55 PM 39.4 °F 33.8 °F 21.0 °F 48% 30.30 in 10.0 mi WNW 8.1 mph - N/A   Clear
7:15 PM 38.5 °F 34.1 °F 20.8 °F 49% 30.30 in 10.0 mi WNW 5.8 mph - N/A   Clear
7:35 PM 37.0 °F 33.3 °F 21.7 °F 54% 30.30 in 10.0 mi WNW 4.6 mph - N/A   Clear
7:55 PM 36.5 °F 33.9 °F 21.2 °F 54% 30.30 in 10.0 mi NW 3.5 mph - N/A   Clear
8:15 PM 36.5 °F 33.9 °F 20.1 °F 52% 30.30 in 10.0 mi NW 3.5 mph - N/A   Clear
8:35 PM 34.0 °F - 21.9 °F 61% 30.31 in 10.0 mi Calm Calm - N/A   Clear
8:55 PM 33.4 °F - 21.9 °F 63% 30.32 in 10.0 mi Calm Calm - N/A   Clear
9:15 PM 31.8 °F - 22.1 °F 67% 30.32 in 10.0 mi Calm Calm - N/A   Clear
9:35 PM 31.8 °F - 21.7 °F 66% 30.32 in 10.0 mi Calm Calm - N/A   Clear
9:55 PM 30.6 °F - 23.0 °F 74% 30.33 in 10.0 mi Calm Calm - N/A   Clear
10:15 PM 30.4 °F - 21.4 °F 69% 30.33 in 10.0 mi Calm Calm - N/A   Clear
10:35 PM 29.5 °F - 23.2 °F 77% 30.33 in 10.0 mi Calm Calm - N/A   Clear
10:55 PM 29.1 °F - 23.4 °F 79% 30.33 in 10.0 mi Calm Calm - N/A   Clear
11:15 PM 28.8 °F - 22.8 °F 78% 30.33 in 10.0 mi Calm Calm - N/A   Clear
11:35 PM 28.4 °F - 23.0 °F 80% 30.34 in 10.0 mi Calm Calm - N/A   Clear
11:55 PM 27.7 °F - 22.6 °F 81% 30.34 in 10.0 mi Calm Calm - N/A   Clear